• en Suisse
  • Liste des pays
  • À 7 jours
  • Température de l'eau
  • Carte satellitaire
  • Carte météo
  • Widgets météo
  • user-avatar
    Se connecter

    Météo par heure à Moung

    Ce jour, 21 Octobre, Dimanche

    Heure Température Précipitation Vent Pression Humidité
    00:00 +28°C° 0.3 mm 2 m/s 758 mmHg 89%
    01:00 +27°C° 0 mm 2 m/s 758 mmHg 90%
    02:00 +27°C° 0 mm 2 m/s 758 mmHg 90%
    03:00 +27°C° 0 mm 2 m/s 758 mmHg 91%
    04:00 +27°C° 0 mm 1 m/s 758 mmHg 92%
    05:00 +27°C° 0 mm 1 m/s 758 mmHg 90%
    06:00 +28°C° 0 mm 1 m/s 758 mmHg 89%
    07:00 +28°C° 0 mm 1 m/s 759 mmHg 88%
    08:00 +29°C° 0 mm 2 m/s 759 mmHg 81%
    09:00 +31°C° 0 mm 2 m/s 759 mmHg 74%
    10:00 +33°C° 0 mm 3 m/s 759 mmHg 67%
    11:00 +34°C° 0.1 mm 3 m/s 759 mmHg 64%
    12:00 +35°C° 0.1 mm 2 m/s 758 mmHg 60%
    13:00 +36°C° 0 mm 3 m/s 757 mmHg 55%
    14:00 +35°C° 0 mm 3 m/s 757 mmHg 56%
    15:00 +35°C° 0 mm 2 m/s 757 mmHg 58%
    16:00 +35°C° 0 mm 2 m/s 756 mmHg 59%
    17:00 +34°C° 0.7 mm 2 m/s 756 mmHg 64%
    18:00 +31°C° 0.7 mm 3 m/s 757 mmHg 70%
    19:00 +30°C° 0 mm 2 m/s 757 mmHg 75%
    20:00 +30°C° 1.2 mm 2 m/s 758 mmHg 78%
    21:00 +29°C° 1.2 mm 2 m/s 758 mmHg 81%
    22:00 +29°C° 1.2 mm 2 m/s 759 mmHg 83%
    23:00 +28°C° 0.1 mm 2 m/s 758 mmHg 84%

    Demain, 22 Octobre, Lundi

    Heure Température Précipitation Vent Pression Humidité
    00:00 +28°C° 0.1 mm 2 m/s 758 mmHg 85%
    01:00 +28°C° 0.1 mm 1 m/s 758 mmHg 86%
    02:00 +28°C° 0 mm 1 m/s 758 mmHg 87%
    03:00 +28°C° 0 mm 1 m/s 758 mmHg 88%
    04:00 +27°C° 0 mm 1 m/s 758 mmHg 89%
    05:00 +28°C° 0 mm 1 m/s 758 mmHg 87%
    06:00 +28°C° 0 mm 1 m/s 758 mmHg 86%
    07:00 +26°C° 0 mm 0 m/s 758 mmHg 84%
    08:00 +28°C° 0 mm 0 m/s 759 mmHg 78%
    09:00 +29°C° 0 mm 0 m/s 759 mmHg 71%
    10:00 +31°C° 0 mm 0 m/s 759 mmHg 65%
    11:00 +31°C° 0 mm 0 m/s 758 mmHg 62%
    12:00 +34°C° 0 mm 1 m/s 758 mmHg 59%
    13:00 +35°C° 0 mm 1 m/s 757 mmHg 56%
    14:00 +34°C° 0.2 mm 1 m/s 756 mmHg 57%
    15:00 +35°C° 0.2 mm 2 m/s 756 mmHg 57%
    16:00 +35°C° 0.2 mm 2 m/s 755 mmHg 58%
    17:00 +34°C° 0.5 mm 2 m/s 756 mmHg 63%
    18:00 +32°C° 0.5 mm 2 m/s 756 mmHg 68%
    19:00 +31°C° 0.5 mm 1 m/s 756 mmHg 74%
    20:00 +30°C° 0.8 mm 1 m/s 757 mmHg 76%
    21:00 +30°C° 0.8 mm 1 m/s 757 mmHg 78%
    22:00 +30°C° 0.8 mm 1 m/s 758 mmHg 80%
    23:00 +29°C° 0.2 mm 1 m/s 758 mmHg 81%

    Après-demain, 23 Octobre, Mardi

    Heure Température Précipitation Vent Pression Humidité
    00:00 +29°C° 0.2 mm 1 m/s 757 mmHg 82%
    01:00 +29°C° 0.2 mm 1 m/s 757 mmHg 83%
    02:00 +29°C° 0.1 mm 1 m/s 757 mmHg 84%
    03:00 +28°C° 0.1 mm 1 m/s 757 mmHg 84%
    04:00 +28°C° 0.1 mm 1 m/s 756 mmHg 85%
    05:00 +28°C° 0 mm 1 m/s 757 mmHg 84%
    06:00 +29°C° 0 mm 1 m/s 757 mmHg 82%
    07:00 +27°C° 0 mm 0 m/s 758 mmHg 81%
    08:00 +30°C° 0 mm 1 m/s 758 mmHg 75%
    09:00 +32°C° 0 mm 1 m/s 758 mmHg 70%
    10:00 +33°C° 0 mm 1 m/s 758 mmHg 64%
    11:00 +33°C° 0.6 mm 1 m/s 758 mmHg 62%
    12:00 +34°C° 0.6 mm 1 m/s 757 mmHg 61%
    13:00 +34°C° 0.6 mm 1 m/s 756 mmHg 59%
    14:00 +34°C° 2.3 mm 1 m/s 756 mmHg 61%
    15:00 +33°C° 2.3 mm 1 m/s 755 mmHg 63%
    16:00 +33°C° 2.3 mm 1 m/s 755 mmHg 65%
    17:00 +32°C° 0.5 mm 1 m/s 755 mmHg 70%
    18:00 +31°C° 0.5 mm 1 m/s 756 mmHg 74%
    19:00 +30°C° 0.5 mm 1 m/s 757 mmHg 78%
    20:00 +30°C° 0.4 mm 1 m/s 757 mmHg 79%
    21:00 +29°C° 0.4 mm 1 m/s 758 mmHg 80%
    22:00 +29°C° 0.4 mm 1 m/s 758 mmHg 81%
    23:00 +29°C° 0.2 mm 1 m/s 758 mmHg 82%

    24 Octobre, Mercredi

    Heure Température Précipitation Vent Pression Humidité
    00:00 +29°C° 0.2 mm 1 m/s 758 mmHg 83%
    01:00 +28°C° 0.2 mm 1 m/s 757 mmHg 84%
    02:00 +28°C° 0.2 mm 1 m/s 757 mmHg 85%
    03:00 +28°C° 0.2 mm 1 m/s 757 mmHg 85%
    04:00 +28°C° 0.2 mm 1 m/s 756 mmHg 86%
    05:00 +28°C° 0.2 mm 1 m/s 757 mmHg 85%
    06:00 +28°C° 0.2 mm 1 m/s 758 mmHg 84%
    07:00 +26°C° 0.2 mm 0 m/s 758 mmHg 83%
    08:00 +29°C° 0.2 mm 1 m/s 758 mmHg 79%
    09:00 +30°C° 0.2 mm 1 m/s 759 mmHg 74%
    10:00 +31°C° 0.2 mm 1 m/s 759 mmHg 70%
    11:00 +32°C° 0.2 mm 1 m/s 758 mmHg 67%
    12:00 +33°C° 0.2 mm 1 m/s 758 mmHg 64%
    13:00 +33°C° 0.2 mm 1 m/s 757 mmHg 61%
    14:00 +33°C° 0.3 mm 1 m/s 756 mmHg 62%
    15:00 +33°C° 0.3 mm 1 m/s 756 mmHg 62%
    16:00 +33°C° 0.3 mm 1 m/s 755 mmHg 62%
    17:00 +32°C° 0.4 mm 1 m/s 756 mmHg 67%
    18:00 +31°C° 0.4 mm 1 m/s 756 mmHg 71%
    19:00 +30°C° 0.4 mm 1 m/s 757 mmHg 76%
    20:00 +30°C° 1.5 mm 2 m/s 758 mmHg 78%
    21:00 +29°C° 1.5 mm 2 m/s 758 mmHg 80%
    22:00 +29°C° 1.5 mm 2 m/s 759 mmHg 82%
    23:00 +29°C° 0 mm 2 m/s 758 mmHg 83%

    25 Octobre, Jeudi

    Heure Température Précipitation Vent Pression Humidité
    00:00 +28°C° 0 mm 2 m/s 758 mmHg 84%
    01:00 +28°C° 0 mm 1 m/s 758 mmHg 85%
    02:00 +28°C° 0 mm 1 m/s 758 mmHg 85%
    03:00 +28°C° 0 mm 1 m/s 757 mmHg 86%
    04:00 +25°C° 0 mm 0 m/s 757 mmHg 87%
    05:00 +26°C° 0 mm 0 m/s 758 mmHg 85%
    06:00 +26°C° 0 mm 0 m/s 758 mmHg 84%
    07:00 +26°C° 0 mm 0 m/s 759 mmHg 82%
    08:00 +30°C° 0 mm 1 m/s 759 mmHg 76%
    09:00 +31°C° 0 mm 2 m/s 759 mmHg 70%
    10:00 +33°C° 0 mm 3 m/s 759 mmHg 64%
    11:00 +34°C° 0.3 mm 3 m/s 759 mmHg 61%
    12:00 +35°C° 0.3 mm 3 m/s 758 mmHg 59%
    13:00 +35°C° 0.3 mm 2 m/s 757 mmHg 57%
    14:00 +35°C° 1 mm 2 m/s 756 mmHg 57%
    15:00 +35°C° 1 mm 2 m/s 756 mmHg 58%
    16:00 +35°C° 1 mm 2 m/s 756 mmHg 59%
    17:00 +34°C° 0.9 mm 2 m/s 756 mmHg 65%
    18:00 +31°C° 0.9 mm 2 m/s 757 mmHg 70%
    19:00 +30°C° 0.9 mm 2 m/s 758 mmHg 76%
    20:00 +30°C° 0.2 mm 2 m/s 758 mmHg 78%
    21:00 +29°C° 0.2 mm 2 m/s 758 mmHg 81%
    22:00 +29°C° 0.2 mm 2 m/s 759 mmHg 83%
    23:00 +28°C° 0.4 mm 2 m/s 759 mmHg 84%

    26 Octobre, Vendredi

    Heure Température Précipitation Vent Pression Humidité
    00:00 +28°C° 0.4 mm 2 m/s 758 mmHg 85%
    01:00 +28°C° 0.4 mm 1 m/s 758 mmHg 86%
    02:00 +28°C° 0.1 mm 1 m/s 758 mmHg 86%
    03:00 +28°C° 0.1 mm 1 m/s 758 mmHg 86%
    04:00 +27°C° 0.1 mm 1 m/s 758 mmHg 86%
    05:00 +28°C° 0.1 mm 1 m/s 758 mmHg 85%
    06:00 +28°C° 0.1 mm 1 m/s 759 mmHg 84%
    07:00 +28°C° 0.1 mm 1 m/s 759 mmHg 82%
    08:00 +30°C° 0 mm 2 m/s 760 mmHg 76%
    09:00 +31°C° 0 mm 2 m/s 760 mmHg 70%
    10:00 +33°C° 0 mm 3 m/s 760 mmHg 64%
    11:00 +34°C° 0 mm 3 m/s 759 mmHg 61%
    12:00 +34°C° 0 mm 2 m/s 758 mmHg 58%
    13:00 +35°C° 0 mm 2 m/s 757 mmHg 56%
    14:00 +35°C° 0 mm 2 m/s 757 mmHg 55%
    15:00 +34°C° 0 mm 1 m/s 757 mmHg 55%
    16:00 +34°C° 0 mm 1 m/s 756 mmHg 54%
    17:00 +33°C° 0 mm 1 m/s 757 mmHg 58%
    18:00 +32°C° 0 mm 1 m/s 757 mmHg 62%
    19:00 +31°C° 0 mm 1 m/s 758 mmHg 67%
    20:00 +30°C° 0 mm 2 m/s 758 mmHg 70%
    21:00 +30°C° 0 mm 2 m/s 758 mmHg 72%
    22:00 +29°C° 0 mm 2 m/s 759 mmHg 75%
    23:00 +29°C° 0.1 mm 2 m/s 758 mmHg 77%
    Voir plus